{"data":{"norad_id":64576,"intl_designator":"2025-135BA","name":"IRIDE-MS2-HEO-6","alt_names":[],"object_type":"PAYLOAD","status":"ACTIVE","operator":null,"country":"IT","launch_date":"2025-06-23","launch_site_code":"AFWTR","launch_vehicle":null,"mission":null,"orbit_class":"UNKNOWN","rcs_meters":null,"size_class":null,"mass_kg":null,"dimensions":null,"purposes":[],"wikipedia_slug":null,"has_3d_model":false,"image_url":null,"decayed_at":null,"tle_current":{"epoch":"2026-09-21T22:47:23.343936Z","epoch_age_seconds":52994,"freshness":"FRESH","line1":"1 64576U 25135BA  26264.94957574  .00001010  00000+0  10531-3 0  9998","line2":"2 64576  97.7805  17.8638 0001964  68.5120 291.6308 14.91954694 68310","mean_motion":14.91954694,"eccentricity":0.0001964,"inclination_deg":97.7805,"raan_deg":17.8638,"arg_perigee_deg":68.512,"mean_anomaly_deg":291.6308,"bstar":0.00010531,"rev_number":6831,"period_min":96.517676159408,"perigee_km":590.47226608602,"apogee_km":593.21007351112,"semimajor_km":6969.9781697986,"source":"CELESTRAK","updated_at":"2026-09-22T09:00:29.852218Z"}}}